Home > Weather > Makati > Past weeks

Flag for Philippines Past Weather in Makati, Philippines — Yesterday and Last 2 Weeks

Now
81 °F

Sprinkles. Mostly cloudy.


Feels Like: 87 °F
Forecast: 80 / 94 °F
Wind: 9 mph from Southeast

Location: National Airport

Current Time: Jun 29, 2016 at 8:44:39 PM

Latest Report: Jun 29, 2016 at 8:00 PM


Visibility: 6 mi

Pressure: 29.92 "Hg

Humidity: 89%

Dew Point: 77 °F

Location of MakatiLocation

Past Weather in Makati — Graph

°F

Makati Temperature Yesterday

Maximum temperature yesterday: 93 °F (at 1:00 PM)
Minimum temperature yesterday: 79 °F (at 12:00 AM)
Average temperature yesterday: 84 °F

High & Low Weather Summary for the Past Weeks

 TemperatureHumidityPressure
High95 °F (Jun 18, 3:00 PM)100% (Jun 15, 9:00 PM)29.92 "Hg (Jun 15, 9:00 PM)
Low77 °F (Jun 26, 6:00 PM)50% (Jun 19, 3:00 PM)29.71 "Hg (Jun 19, 3:00 PM)
Average85 °F79%29.80 "Hg
* Reported Jun 14 7:00 PM — Jun 29 7:00 PM, Makati, Weather by CustomWeather, © 2016

Note: Actual official high and low records may vary slightly from our data, if they occured in-between our weather recording intervals... More about our weather records

Advertising

Makati Weather History for the Previous 24 Hours

Scroll right to see more
 ConditionsComfort  
Time TempWeatherWind HumidityBarometerVisibility
7:00 PM
Wed, Jun 29
84 °FMostly cloudy.6 mph79%29.89 "HgN/A
6:00 PM84 °FMore clouds than sun.No wind79%29.86 "HgN/A
5:00 PM84 °FMore clouds than sun.No wind74%29.83 "HgN/A
4:00 PM81 °FMore clouds than sun.No wind84%29.83 "HgN/A
3:00 PM77 °FThunderstorms. More clouds than sun.14 mph100%29.83 "Hg5 mi
2:00 PM91 °FScattered showers. Scattered clouds.5 mph63%29.83 "HgN/A
1:00 PM90 °FPartly sunny.8 mph67%29.83 "Hg6 mi
12:00 PM88 °FMore clouds than sun.8 mph75%29.86 "Hg6 mi
11:00 AM90 °FBroken clouds.3 mph75%29.89 "HgN/A
10:00 AM86 °FScattered clouds.7 mph79%29.89 "HgN/A
9:00 AM86 °FScattered clouds.3 mph79%29.89 "HgN/A
8:00 AM88 °FScattered clouds.3 mph75%29.89 "HgN/A
7:00 AM84 °FWarm.N/A94%29.89 "HgN/A
6:00 AM81 °FPartly sunny.No wind100%29.89 "HgN/A
5:00 AM81 °FPassing clouds.1 mph100%29.89 "HgN/A
4:00 AM81 °FPassing clouds.No wind100%29.89 "Hg6 mi
3:00 AM82 °FPassing clouds.No wind94%29.89 "HgN/A
2:00 AM82 °FPassing clouds.No wind94%29.86 "HgN/A
1:00 AM82 °FPassing clouds.No wind89%29.89 "HgN/A
12:00 AM82 °FPassing clouds.No wind89%29.89 "HgN/A
11:00 PM
Tue, Jun 28
82 °FPassing clouds.No wind89%29.92 "HgN/A
10:00 PM82 °FPassing clouds.6 mph94%29.92 "HgN/A
9:00 PM82 °FPassing clouds.16 mph94%29.89 "HgN/A
8:00 PM82 °FPassing clouds.1 mph94%29.89 "HgN/A
Weather by CustomWeather, © 2016

See weather overviewHow to use our weather pages